History Data

Date (GMT-7:00) CPM ACPM uSv/h Latitude Longitude Altitude CO CO2 TVOC HCHO Air Pressure Temperature Humidity Type
2026-03-25 16:17:42 15 16.20 0.075000 41.649648 41.62752893 0 0 0 0 0 0 0 0 STD5.60
2026-03-25 16:12:40 12 16.20 0.060000 41.649648 41.62752893 0 0 0 0 0 0 0 0 STD5.60
2026-03-25 16:07:38 14 16.80 0.070000 41.649648 41.62752893 0 0 0 0 0 0 0 0 STD5.60
2026-03-25 16:02:36 25 17.10 0.125000 41.649648 41.62752893 0 0 0 0 0 0 0 0 STD5.60
2026-03-25 15:57:33 16 16.30 0.080000 41.649648 41.62752893 0 0 0 0 0 0 0 0 STD5.60
2026-03-25 15:52:31 21 15.40 0.105000 41.649648 41.62752893 0 0 0 0 0 0 0 0 STD5.60
2026-03-25 15:47:29 15 15.20 0.075000 41.649648 41.62752893 0 0 0 0 0 0 0 0 STD5.60
2026-03-25 15:42:27 14 17.60 0.070000 41.649648 41.62752893 0 0 0 0 0 0 0 0 STD5.60
2026-03-25 15:37:26 22 18.30 0.110000 41.649648 41.62752893 0 0 0 0 0 0 0 0 STD5.60
2026-03-25 15:32:26 25 17.40 0.125000 41.649648 41.62752893 0 0 0 0 0 0 0 0 STD5.60
2026-03-25 15:27:21 23 16.90 0.115000 41.649648 41.62752893 0 0 0 0 0 0 0 0 STD5.60
2026-03-25 15:22:21 13 16.50 0.065000 41.649648 41.62752893 0 0 0 0 0 0 0 0 STD5.60
2026-03-25 15:17:17 16 17.10 0.080000 41.649648 41.62752893 0 0 0 0 0 0 0 0 STD5.60
2026-03-25 15:12:17 16 18.20 0.080000 41.649648 41.62752893 0 0 0 0 0 0 0 0 STD5.60
2026-03-25 15:07:17 21 17.40 0.105000 41.649648 41.62752893 0 0 0 0 0 0 0 0 STD5.60
2026-03-25 15:02:10 19 17.20 0.095000 41.649648 41.62752893 0 0 0 0 0 0 0 0 STD5.60
2026-03-25 14:57:08 24 19.30 0.120000 41.649648 41.62752893 0 0 0 0 0 0 0 0 STD5.60
2026-03-25 14:52:06 25 18.90 0.125000 41.649648 41.62752893 0 0 0 0 0 0 0 0 STD5.60
2026-03-25 14:47:04 22 18.00 0.110000 41.649648 41.62752893 0 0 0 0 0 0 0 0 STD5.60
2026-03-25 14:42:02 17 18.20 0.085000 41.649648 41.62752893 0 0 0 0 0 0 0 0 STD5.60
2026-03-25 14:37:00 23 18.20 0.115000 41.649648 41.62752893 0 0 0 0 0 0 0 0 STD5.60
2026-03-25 14:31:59 16 17.80 0.080000 41.649648 41.62752893 0 0 0 0 0 0 0 0 STD5.60
2026-03-25 14:26:59 19 19.80 0.095000 41.649648 41.62752893 0 0 0 0 0 0 0 0 STD5.60
2026-03-25 14:21:55 26 20.00 0.130000 41.649648 41.62752893 0 0 0 0 0 0 0 0 STD5.60
2026-03-25 14:16:53 24 19.40 0.120000 41.649648 41.62752893 0 0 0 0 0 0 0 0 STD5.60
2026-03-25 14:11:51 16 19.20 0.080000 41.649648 41.62752893 0 0 0 0 0 0 0 0 STD5.60
2026-03-25 14:06:49 17 15.70 0.085000 41.649648 41.62752893 0 0 0 0 0 0 0 0 STD5.60
2026-03-25 14:01:48 13 14.20 0.065000 41.649648 41.62752893 0 0 0 0 0 0 0 0 STD5.60
2026-03-25 13:56:44 14 15.20 0.070000 41.649648 41.62752893 0 0 0 0 0 0 0 0 STD5.60
2026-03-25 13:51:42 20 18.30 0.100000 41.649648 41.62752893 0 0 0 0 0 0 0 0 STD5.60
2026-03-25 13:46:39 23 18.20 0.115000 41.649648 41.62752893 0 0 0 0 0 0 0 0 STD5.60
2026-03-25 13:41:38 17 16.40 0.085000 41.649648 41.62752893 0 0 0 0 0 0 0 0 STD5.60
2026-03-25 13:36:36 12 17.20 0.060000 41.649648 41.62752893 0 0 0 0 0 0 0 0 STD5.60
2026-03-25 13:31:33 21 15.40 0.105000 41.649648 41.62752893 0 0 0 0 0 0 0 0 STD5.60
2026-03-25 13:26:32 5 15.20 0.025000 41.649648 41.62752893 0 0 0 0 0 0 0 0 STD5.60
2026-03-25 13:21:33 20 19.00 0.100000 41.649648 41.62752893 0 0 0 0 0 0 0 0 STD5.60
2026-03-25 13:16:29 22 19.20 0.110000 41.649648 41.62752893 0 0 0 0 0 0 0 0 STD5.60
2026-03-25 13:11:26 27 18.80 0.135000 41.649648 41.62752893 0 0 0 0 0 0 0 0 STD5.60
2026-03-25 13:06:24 25 18.90 0.125000 41.649648 41.62752893 0 0 0 0 0 0 0 0 STD5.60
2026-03-25 13:01:20 14 17.40 0.070000 41.649648 41.62752893 0 0 0 0 0 0 0 0 STD5.60
2026-03-25 12:56:19 16 17.50 0.080000 41.649648 41.62752893 0 0 0 0 0 0 0 0 STD5.60
2026-03-25 12:51:16 15 16.00 0.075000 41.649648 41.62752893 0 0 0 0 0 0 0 0 STD5.60
2026-03-25 12:46:15 12 16.90 0.060000 41.649648 41.62752893 0 0 0 0 0 0 0 0 STD5.60
2026-03-25 12:41:14 16 18.80 0.080000 41.649648 41.62752893 0 0 0 0 0 0 0 0 STD5.60
2026-03-25 12:36:11 12 19.00 0.060000 41.649648 41.62752893 0 0 0 0 0 0 0 0 STD5.60
2026-03-25 12:31:09 16 19.00 0.080000 41.649648 41.62752893 0 0 0 0 0 0 0 0 STD5.60
2026-03-25 12:26:07 7 18.70 0.035000 41.649648 41.62752893 0 0 0 0 0 0 0 0 STD5.60
2026-03-25 12:21:08 15 19.40 0.075000 41.649648 41.62752893 0 0 0 0 0 0 0 0 STD5.60
2026-03-25 12:16:03 18 18.00 0.090000 41.649648 41.62752893 0 0 0 0 0 0 0 0 STD5.60
2026-03-25 12:11:02 17 18.40 0.085000 41.649648 41.62752893 0 0 0 0 0 0 0 0 STD5.60
2026-03-25 12:05:59 20 19.90 0.100000 41.649648 41.62752893 0 0 0 0 0 0 0 0 STD5.60
2026-03-25 12:00:57 21 18.80 0.105000 41.649648 41.62752893 0 0 0 0 0 0 0 0 STD5.60
2026-03-25 11:55:53 18 18.10 0.090000 41.649648 41.62752893 0 0 0 0 0 0 0 0 STD5.60
2026-03-25 11:50:52 14 17.40 0.070000 41.649648 41.62752893 0 0 0 0 0 0 0 0 STD5.60
2026-03-25 11:45:49 19 18.20 0.095000 41.649648 41.62752893 0 0 0 0 0 0 0 0 STD5.60
2026-03-25 11:40:47 22 17.80 0.110000 41.649648 41.62752893 0 0 0 0 0 0 0 0 STD5.60
2026-03-25 11:35:45 7 17.30 0.035000 41.649648 41.62752893 0 0 0 0 0 0 0 0 STD5.60
2026-03-25 11:30:44 20 20.30 0.100000 41.649648 41.62752893 0 0 0 0 0 0 0 0 STD5.60
2026-03-25 11:25:42 22 22.10 0.110000 41.649648 41.62752893 0 0 0 0 0 0 0 0 STD5.60
2026-03-25 11:20:43 21 21.00 0.105000 41.649648 41.62752893 0 0 0 0 0 0 0 0 STD5.60
2026-03-25 11:15:38 20 18.70 0.100000 41.649648 41.62752893 0 0 0 0 0 0 0 0 STD5.60
2026-03-25 11:10:36 21 18.10 0.105000 41.649648 41.62752893 0 0 0 0 0 0 0 0 STD5.60
2026-03-25 11:05:37 16 20.40 0.080000 41.649648 41.62752893 0 0 0 0 0 0 0 0 STD5.60
2026-03-25 11:00:32 21 19.50 0.105000 41.649648 41.62752893 0 0 0 0 0 0 0 0 STD5.60
2026-03-25 10:55:29 12 17.90 0.060000 41.649648 41.62752893 0 0 0 0 0 0 0 0 STD5.60
2026-03-25 10:50:26 21 17.40 0.105000 41.649648 41.62752893 0 0 0 0 0 0 0 0 STD5.60
2026-03-25 10:45:24 18 15.80 0.090000 41.649648 41.62752893 0 0 0 0 0 0 0 0 STD5.60
2026-03-25 10:40:22 14 17.90 0.070000 41.649648 41.62752893 0 0 0 0 0 0 0 0 STD5.60
2026-03-25 10:35:20 18 18.50 0.090000 41.649648 41.62752893 0 0 0 0 0 0 0 0 STD5.60
2026-03-25 10:30:18 15 16.40 0.075000 41.649648 41.62752893 0 0 0 0 0 0 0 0 STD5.60
2026-03-25 10:25:16 15 16.70 0.075000 41.649648 41.62752893 0 0 0 0 0 0 0 0 STD5.60
2026-03-25 10:20:15 18 17.60 0.090000 41.649648 41.62752893 0 0 0 0 0 0 0 0 STD5.60
2026-03-25 10:15:15 12 16.00 0.060000 41.649648 41.62752893 0 0 0 0 0 0 0 0 STD5.60
2026-03-25 10:10:11 16 11.90 0.080000 41.649648 41.62752893 0 0 0 0 0 0 0 0 STD5.60
2026-03-25 10:05:09 18 4.50 0.090000 41.649648 41.62752893 0 0 0 0 0 0 0 0 STD5.60
2026-03-25 10:00:06 17 18.80 0.085000 41.649648 41.62752893 0 0 0 0 0 0 0 0 STD5.60
2026-03-25 09:55:03 24 19.10 0.120000 41.649648 41.62752893 0 0 0 0 0 0 0 0 STD5.60
2026-03-25 09:50:00 21 18.40 0.105000 41.649648 41.62752893 0 0 0 0 0 0 0 0 STD5.60
2026-03-25 09:44:59 23 18.80 0.115000 41.649648 41.62752893 0 0 0 0 0 0 0 0 STD5.60
2026-03-25 09:39:57 20 18.40 0.100000 41.649648 41.62752893 0 0 0 0 0 0 0 0 STD5.60
2026-03-25 09:34:55 17 17.30 0.085000 41.649648 41.62752893 0 0 0 0 0 0 0 0 STD5.60
2026-03-25 09:29:53 16 17.40 0.080000 41.649648 41.62752893 0 0 0 0 0 0 0 0 STD5.60
2026-03-25 09:24:51 17 19.80 0.085000 41.649648 41.62752893 0 0 0 0 0 0 0 0 STD5.60
2026-03-25 09:19:49 22 18.70 0.110000 41.649648 41.62752893 0 0 0 0 0 0 0 0 STD5.60
2026-03-25 09:14:47 15 16.40 0.075000 41.649648 41.62752893 0 0 0 0 0 0 0 0 STD5.60
2026-03-25 09:09:45 18 16.40 0.090000 41.649648 41.62752893 0 0 0 0 0 0 0 0 STD5.60
2026-03-25 09:04:45 12 17.40 0.060000 41.649648 41.62752893 0 0 0 0 0 0 0 0 STD5.60
2026-03-25 08:59:38 21 17.90 0.105000 41.649648 41.62752893 0 0 0 0 0 0 0 0 STD5.60
2026-03-25 08:54:37 15 17.80 0.075000 41.649648 41.62752893 0 0 0 0 0 0 0 0 STD5.60
2026-03-25 08:49:35 24 18.40 0.120000 41.649648 41.62752893 0 0 0 0 0 0 0 0 STD5.60
2026-03-25 08:44:33 21 18.90 0.105000 41.649648 41.62752893 0 0 0 0 0 0 0 0 STD5.60
2026-03-25 08:39:30 25 17.30 0.125000 41.649648 41.62752893 0 0 0 0 0 0 0 0 STD5.60
2026-03-25 08:34:29 11 16.80 0.055000 41.649648 41.62752893 0 0 0 0 0 0 0 0 STD5.60
2026-03-25 08:29:27 18 17.30 0.090000 41.649648 41.62752893 0 0 0 0 0 0 0 0 STD5.60
2026-03-25 08:24:25 17 14.80 0.085000 41.649648 41.62752893 0 0 0 0 0 0 0 0 STD5.60
2026-03-25 08:19:24 22 16.00 0.110000 41.649648 41.62752893 0 0 0 0 0 0 0 0 STD5.60
2026-03-25 08:14:22 17 18.40 0.085000 41.649648 41.62752893 0 0 0 0 0 0 0 0 STD5.60
2026-03-25 08:09:23 18 18.10 0.090000 41.649648 41.62752893 0 0 0 0 0 0 0 0 STD5.60
2026-03-25 08:04:20 25 16.60 0.125000 41.649648 41.62752893 0 0 0 0 0 0 0 0 STD5.60
2026-03-25 07:59:13 13 16.90 0.065000 41.649648 41.62752893 0 0 0 0 0 0 0 0 STD5.60
2026-03-25 07:54:11 16 18.30 0.080000 41.649648 41.62752893 0 0 0 0 0 0 0 0 STD5.60
2026-03-25 07:49:10 25 18.30 0.125000 41.649648 41.62752893 0 0 0 0 0 0 0 0 STD5.60
2026-03-25 07:44:07 21 16.10 0.105000 41.649648 41.62752893 0 0 0 0 0 0 0 0 STD5.60
2026-03-25 07:39:07 16 15.10 0.080000 41.649648 41.62752893 0 0 0 0 0 0 0 0 STD5.60
2026-03-25 07:34:05 21 16.90 0.105000 41.649648 41.62752893 0 0 0 0 0 0 0 0 STD5.60
2026-03-25 07:29:01 15 18.90 0.075000 41.649648 41.62752893 0 0 0 0 0 0 0 0 STD5.60
2026-03-25 07:23:59 18 20.40 0.090000 41.649648 41.62752893 0 0 0 0 0 0 0 0 STD5.60
2026-03-25 07:18:57 21 19.80 0.105000 41.649648 41.62752893 0 0 0 0 0 0 0 0 STD5.60
2026-03-25 07:13:56 17 18.50 0.085000 41.649648 41.62752893 0 0 0 0 0 0 0 0 STD5.60
2026-03-25 07:08:54 15 17.10 0.075000 41.649648 41.62752893 0 0 0 0 0 0 0 0 STD5.60
2026-03-25 07:03:52 17 17.50 0.085000 41.649648 41.62752893 0 0 0 0 0 0 0 0 STD5.60
2026-03-25 06:58:47 23 17.40 0.115000 41.649648 41.62752893 0 0 0 0 0 0 0 0 STD5.60
2026-03-25 06:53:45 21 17.10 0.105000 41.649648 41.62752893 0 0 0 0 0 0 0 0 STD5.60
2026-03-25 06:48:44 15 18.50 0.075000 41.649648 41.62752893 0 0 0 0 0 0 0 0 STD5.60
2026-03-25 06:43:42 18 18.10 0.090000 41.649648 41.62752893 0 0 0 0 0 0 0 0 STD5.60
2026-03-25 06:38:39 20 17.40 0.100000 41.649648 41.62752893 0 0 0 0 0 0 0 0 STD5.60
2026-03-25 06:33:38 15 17.00 0.075000 41.649648 41.62752893 0 0 0 0 0 0 0 0 STD5.60
2026-03-25 06:28:36 16 17.10 0.080000 41.649648 41.62752893 0 0 0 0 0 0 0 0 STD5.60
2026-03-25 06:23:34 16 17.90 0.080000 41.649648 41.62752893 0 0 0 0 0 0 0 0 STD5.60
2026-03-25 06:18:32 20 16.60 0.100000 41.649648 41.62752893 0 0 0 0 0 0 0 0 STD5.60
2026-03-25 06:13:30 12 17.20 0.060000 41.649648 41.62752893 0 0 0 0 0 0 0 0 STD5.60
2026-03-25 06:08:28 13 17.80 0.065000 41.649648 41.62752893 0 0 0 0 0 0 0 0 STD5.60
2026-03-25 06:03:26 13 17.10 0.065000 41.649648 41.62752893 0 0 0 0 0 0 0 0 STD5.60
2026-03-25 05:58:22 21 19.70 0.105000 41.649648 41.62752893 0 0 0 0 0 0 0 0 STD5.60
2026-03-25 05:53:21 19 19.60 0.095000 41.649648 41.62752893 0 0 0 0 0 0 0 0 STD5.60
2026-03-25 05:48:19 18 15.70 0.090000 41.649648 41.62752893 0 0 0 0 0 0 0 0 STD5.60
2026-03-25 05:43:17 17 16.50 0.085000 41.649648 41.62752893 0 0 0 0 0 0 0 0 STD5.60
2026-03-25 05:38:15 22 19.20 0.110000 41.649648 41.62752893 0 0 0 0 0 0 0 0 STD5.60
2026-03-25 05:33:14 11 19.00 0.055000 41.649648 41.62752893 0 0 0 0 0 0 0 0 STD5.60
2026-03-25 05:28:14 18 17.40 0.090000 41.649648 41.62752893 0 0 0 0 0 0 0 0 STD5.60
2026-03-25 05:23:09 8 16.70 0.040000 41.649648 41.62752893 0 0 0 0 0 0 0 0 STD5.60
2026-03-25 05:18:07 15 17.50 0.075000 41.649648 41.62752893 0 0 0 0 0 0 0 0 STD5.60
2026-03-25 05:13:06 14 16.00 0.070000 41.649648 41.62752893 0 0 0 0 0 0 0 0 STD5.60
2026-03-25 05:08:03 8 15.10 0.040000 41.649648 41.62752893 0 0 0 0 0 0 0 0 STD5.60
2026-03-25 05:03:02 14 15.90 0.070000 41.649648 41.62752893 0 0 0 0 0 0 0 0 STD5.60
2026-03-25 04:57:57 22 17.60 0.110000 41.649648 41.62752893 0 0 0 0 0 0 0 0 STD5.60
2026-03-25 04:52:56 18 19.10 0.090000 41.649648 41.62752893 0 0 0 0 0 0 0 0 STD5.60
2026-03-25 04:47:54 20 19.10 0.100000 41.649648 41.62752893 0 0 0 0 0 0 0 0 STD5.60
2026-03-25 04:42:52 17 18.00 0.085000 41.649648 41.62752893 0 0 0 0 0 0 0 0 STD5.60
2026-03-25 04:37:50 23 14.20 0.115000 41.649648 41.62752893 0 0 0 0 0 0 0 0 STD5.60
2026-03-25 04:32:49 8 14.80 0.040000 41.649648 41.62752893 0 0 0 0 0 0 0 0 STD5.60
2026-03-25 04:27:47 19 17.20 0.095000 41.649648 41.62752893 0 0 0 0 0 0 0 0 STD5.60
2026-03-25 04:22:44 13 16.50 0.065000 41.649648 41.62752893 0 0 0 0 0 0 0 0 STD5.60
2026-03-25 04:17:42 18 18.70 0.090000 41.649648 41.62752893 0 0 0 0 0 0 0 0 STD5.60
2026-03-25 04:12:41 19 18.80 0.095000 41.649648 41.62752893 0 0 0 0 0 0 0 0 STD5.60
2026-03-25 04:07:38 11 16.80 0.055000 41.649648 41.62752893 0 0 0 0 0 0 0 0 STD5.60
2026-03-25 04:02:38 12 17.40 0.060000 41.649648 41.62752893 0 0 0 0 0 0 0 0 STD5.60
2026-03-25 03:57:33 14 18.40 0.070000 41.649648 41.62752893 0 0 0 0 0 0 0 0 STD5.60
2026-03-25 03:52:31 18 17.00 0.090000 41.649648 41.62752893 0 0 0 0 0 0 0 0 STD5.60
2026-03-25 03:47:29 6 18.70 0.030000 41.649648 41.62752893 0 0 0 0 0 0 0 0 STD5.60
2026-03-25 03:42:26 19 19.60 0.095000 41.649648 41.62752893 0 0 0 0 0 0 0 0 STD5.60
2026-03-25 03:37:25 19 18.40 0.095000 41.649648 41.62752893 0 0 0 0 0 0 0 0 STD5.60
2026-03-25 03:32:23 20 20.90 0.100000 41.649648 41.62752893 0 0 0 0 0 0 0 0 STD5.60
2026-03-25 03:27:21 20 21.60 0.100000 41.649648 41.62752893 0 0 0 0 0 0 0 0 STD5.60
2026-03-25 03:22:20 15 18.20 0.075000 41.649648 41.62752893 0 0 0 0 0 0 0 0 STD5.60
2026-03-25 03:17:17 15 14.30 0.075000 41.649648 41.62752893 0 0 0 0 0 0 0 0 STD5.60
2026-03-25 03:12:15 21 15.00 0.105000 41.649648 41.62752893 0 0 0 0 0 0 0 0 STD5.60
2026-03-25 03:07:13 15 18.70 0.075000 41.649648 41.62752893 0 0 0 0 0 0 0 0 STD5.60
2026-03-25 03:02:12 22 20.10 0.110000 41.649648 41.62752893 0 0 0 0 0 0 0 0 STD5.60
2026-03-25 02:57:07 25 20.00 0.125000 41.649648 41.62752893 0 0 0 0 0 0 0 0 STD5.60
2026-03-25 02:52:06 21 17.30 0.105000 41.649648 41.62752893 0 0 0 0 0 0 0 0 STD5.60
2026-03-25 02:47:04 15 18.40 0.075000 41.649648 41.62752893 0 0 0 0 0 0 0 0 STD5.60
2026-03-25 02:42:02 24 19.70 0.120000 41.649648 41.62752893 0 0 0 0 0 0 0 0 STD5.60
2026-03-25 02:37:00 24 19.00 0.120000 41.649648 41.62752893 0 0 0 0 0 0 0 0 STD5.60
2026-03-25 02:31:58 16 20.10 0.080000 41.649648 41.62752893 0 0 0 0 0 0 0 0 STD5.60
2026-03-25 02:26:56 25 17.60 0.125000 41.649648 41.62752893 0 0 0 0 0 0 0 0 STD5.60
2026-03-25 02:21:54 15 14.80 0.075000 41.649648 41.62752893 0 0 0 0 0 0 0 0 STD5.60
2026-03-25 02:16:52 13 16.60 0.065000 41.649648 41.62752893 0 0 0 0 0 0 0 0 STD5.60
2026-03-25 02:11:50 18 17.40 0.090000 41.649648 41.62752893 0 0 0 0 0 0 0 0 STD5.60
2026-03-25 02:06:48 11 16.70 0.055000 41.649648 41.62752893 0 0 0 0 0 0 0 0 STD5.60
2026-03-25 02:01:47 13 18.10 0.065000 41.649648 41.62752893 0 0 0 0 0 0 0 0 STD5.60
2026-03-25 01:56:44 23 18.10 0.115000 41.649648 41.62752893 0 0 0 0 0 0 0 0 STD5.60
2026-03-25 01:51:41 24 17.70 0.120000 41.649648 41.62752893 0 0 0 0 0 0 0 0 STD5.60
2026-03-25 01:46:39 12 18.30 0.060000 41.649648 41.62752893 0 0 0 0 0 0 0 0 STD5.60
2026-03-25 01:41:37 22 16.70 0.110000 41.649648 41.62752893 0 0 0 0 0 0 0 0 STD5.60
2026-03-25 01:36:35 17 17.10 0.085000 41.649648 41.62752893 0 0 0 0 0 0 0 0 STD5.60
2026-03-25 01:31:34 20 19.50 0.100000 41.649648 41.62752893 0 0 0 0 0 0 0 0 STD5.60
2026-03-25 01:26:33 19 19.00 0.095000 41.649648 41.62752893 0 0 0 0 0 0 0 0 STD5.60
2026-03-25 01:21:29 17 17.30 0.085000 41.649648 41.62752893 0 0 0 0 0 0 0 0 STD5.60
2026-03-25 01:16:27 11 16.70 0.055000 41.649648 41.62752893 0 0 0 0 0 0 0 0 STD5.60
2026-03-25 01:11:24 10 17.60 0.050000 41.649648 41.62752893 0 0 0 0 0 0 0 0 STD5.60
2026-03-25 01:06:22 24 18.30 0.120000 41.649648 41.62752893 0 0 0 0 0 0 0 0 STD5.60
2026-03-25 01:01:20 13 17.20 0.065000 41.649648 41.62752893 0 0 0 0 0 0 0 0 STD5.60
2026-03-25 00:56:16 17 18.70 0.085000 41.649648 41.62752893 0 0 0 0 0 0 0 0 STD5.60
2026-03-25 00:51:13 30 19.00 0.150000 41.649648 41.62752893 0 0 0 0 0 0 0 0 STD5.60
2026-03-25 00:46:12 27 18.00 0.135000 41.649648 41.62752893 0 0 0 0 0 0 0 0 STD5.60
2026-03-25 00:41:10 15 18.60 0.075000 41.649648 41.62752893 0 0 0 0 0 0 0 0 STD5.60
2026-03-25 00:36:08 20 18.80 0.100000 41.649648 41.62752893 0 0 0 0 0 0 0 0 STD5.60
2026-03-25 00:31:06 25 18.10 0.125000 41.649648 41.62752893 0 0 0 0 0 0 0 0 STD5.60
2026-03-25 00:26:04 15 17.00 0.075000 41.649648 41.62752893 0 0 0 0 0 0 0 0 STD5.60
2026-03-25 00:21:03 17 16.70 0.085000 41.649648 41.62752893 0 0 0 0 0 0 0 0 STD5.60
2026-03-25 00:16:00 15 17.70 0.075000 41.649648 41.62752893 0 0 0 0 0 0 0 0 STD5.60
2026-03-25 00:11:00 26 19.10 0.130000 41.649648 41.62752893 0 0 0 0 0 0 0 0 STD5.60
2026-03-25 00:05:56 23 19.90 0.115000 41.649648 41.62752893 0 0 0 0 0 0 0 0 STD5.60
2026-03-25 00:00:54 20 19.40 0.100000 41.649648 41.62752893 0 0 0 0 0 0 0 0 STD5.60
2026-03-24 23:55:50 18 18.60 0.090000 41.649648 41.62752893 0 0 0 0 0 0 0 0 STD5.60
2026-03-24 23:50:47 24 18.60 0.120000 41.649648 41.62752893 0 0 0 0 0 0 0 0 STD5.60
2026-03-24 23:45:45 21 19.50 0.105000 41.649648 41.62752893 0 0 0 0 0 0 0 0 STD5.60
2026-03-24 23:40:44 14 19.60 0.070000 41.649648 41.62752893 0 0 0 0 0 0 0 0 STD5.60
2026-03-24 23:35:42 20 18.90 0.100000 41.649648 41.62752893 0 0 0 0 0 0 0 0 STD5.60
2026-03-24 23:30:40 19 17.10 0.095000 41.649648 41.62752893 0 0 0 0 0 0 0 0 STD5.60
2026-03-24 23:25:37 14 14.60 0.070000 41.649648 41.62752893 0 0 0 0 0 0 0 0 STD5.60
2026-03-24 23:20:37 20 15.20 0.100000 41.649648 41.62752893 0 0 0 0 0 0 0 0 STD5.60
2026-03-24 23:15:34 15 17.10 0.075000 41.649648 41.62752893 0 0 0 0 0 0 0 0 STD5.60
2026-03-24 23:10:32 17 17.00 0.085000 41.649648 41.62752893 0 0 0 0 0 0 0 0 STD5.60
2026-03-24 23:05:31 15 17.50 0.075000 41.649648 41.62752893 0 0 0 0 0 0 0 0 STD5.60
2026-03-24 23:00:29 20 19.50 0.100000 41.649648 41.62752893 0 0 0 0 0 0 0 0 STD5.60
2026-03-24 22:55:23 19 20.40 0.095000 41.649648 41.62752893 0 0 0 0 0 0 0 0 STD5.60
2026-03-24 22:50:21 24 21.10 0.120000 41.649648 41.62752893 0 0 0 0 0 0 0 0 STD5.60
2026-03-24 22:45:19 23 18.80 0.115000 41.649648 41.62752893 0 0 0 0 0 0 0 0 STD5.60
2026-03-24 22:40:17 14 18.10 0.070000 41.649648 41.62752893 0 0 0 0 0 0 0 0 STD5.60
2026-03-24 22:35:15 26 17.60 0.130000 41.649648 41.62752893 0 0 0 0 0 0 0 0 STD5.60
2026-03-24 22:30:13 15 17.20 0.075000 41.649648 41.62752893 0 0 0 0 0 0 0 0 STD5.60
2026-03-24 22:25:11 11 17.60 0.055000 41.649648 41.62752893 0 0 0 0 0 0 0 0 STD5.60
2026-03-24 22:20:10 17 16.70 0.085000 41.649648 41.62752893 0 0 0 0 0 0 0 0 STD5.60
2026-03-24 22:15:07 17 16.90 0.085000 41.649648 41.62752893 0 0 0 0 0 0 0 0 STD5.60
2026-03-24 22:10:05 16 18.60 0.080000 41.649648 41.62752893 0 0 0 0 0 0 0 0 STD5.60
2026-03-24 22:05:04 18 19.40 0.090000 41.649648 41.62752893 0 0 0 0 0 0 0 0 STD5.60
2026-03-24 22:00:02 23 19.80 0.115000 41.649648 41.62752893 0 0 0 0 0 0 0 0 STD5.60
2026-03-24 21:54:58 19 18.80 0.095000 41.649648 41.62752893 0 0 0 0 0 0 0 0 STD5.60
2026-03-24 21:49:55 13 18.60 0.065000 41.649648 41.62752893 0 0 0 0 0 0 0 0 STD5.60
2026-03-24 21:44:53 18 19.40 0.090000 41.649648 41.62752893 0 0 0 0 0 0 0 0 STD5.60
2026-03-24 21:39:52 24 17.50 0.120000 41.649648 41.62752893 0 0 0 0 0 0 0 0 STD5.60
2026-03-24 21:34:50 19 16.70 0.095000 41.649648 41.62752893 0 0 0 0 0 0 0 0 STD5.60
2026-03-24 21:29:48 17 18.40 0.085000 41.649648 41.62752893 0 0 0 0 0 0 0 0 STD5.60
2026-03-24 21:24:46 19 18.60 0.095000 41.649648 41.62752893 0 0 0 0 0 0 0 0 STD5.60
2026-03-24 21:19:43 18 18.10 0.090000 41.649648 41.62752893 0 0 0 0 0 0 0 0 STD5.60
2026-03-24 21:14:42 19 16.30 0.095000 41.649648 41.62752893 0 0 0 0 0 0 0 0 STD5.60
2026-03-24 21:09:39 14 16.00 0.070000 41.649648 41.62752893 0 0 0 0 0 0 0 0 STD5.60
2026-03-24 21:04:38 12 17.80 0.060000 41.649648 41.62752893 0 0 0 0 0 0 0 0 STD5.60
2026-03-24 20:59:36 15 20.20 0.075000 41.649648 41.62752893 0 0 0 0 0 0 0 0 STD5.60
2026-03-24 20:54:32 17 17.00 0.085000 41.649648 41.62752893 0 0 0 0 0 0 0 0 STD5.60
2026-03-24 20:49:30 12 17.80 0.060000 41.649648 41.62752893 0 0 0 0 0 0 0 0 STD5.60
2026-03-24 20:44:28 25 19.70 0.125000 41.649648 41.62752893 0 0 0 0 0 0 0 0 STD5.60
2026-03-24 20:39:27 15 18.30 0.075000 41.649648 41.62752893 0 0 0 0 0 0 0 0 STD5.60
2026-03-24 20:34:24 15 17.90 0.075000 41.649648 41.62752893 0 0 0 0 0 0 0 0 STD5.60
2026-03-24 20:29:22 19 16.60 0.095000 41.649648 41.62752893 0 0 0 0 0 0 0 0 STD5.60
2026-03-24 20:24:20 15 17.50 0.075000 41.649648 41.62752893 0 0 0 0 0 0 0 0 STD5.60
2026-03-24 20:19:19 24 17.00 0.120000 41.649648 41.62752893 0 0 0 0 0 0 0 0 STD5.60
2026-03-24 20:14:16 20 16.30 0.100000 41.649648 41.62752893 0 0 0 0 0 0 0 0 STD5.60
2026-03-24 20:09:14 18 18.10 0.090000 41.649648 41.62752893 0 0 0 0 0 0 0 0 STD5.60
2026-03-24 20:04:13 18 18.90 0.090000 41.649648 41.62752893 0 0 0 0 0 0 0 0 STD5.60
2026-03-24 19:59:08 26 18.00 0.130000 41.649648 41.62752893 0 0 0 0 0 0 0 0 STD5.60
2026-03-24 19:53:55 19 18.20 0.095000 41.649648 41.62752893 0 0 0 0 0 0 0 0 STD5.60
2026-03-24 19:48:53 18 18.20 0.090000 41.649648 41.62752893 0 0 0 0 0 0 0 0 STD5.60
2026-03-24 19:43:51 28 17.90 0.140000 41.649648 41.62752893 0 0 0 0 0 0 0 0 STD5.60
2026-03-24 19:38:49 16 18.50 0.080000 41.649648 41.62752893 0 0 0 0 0 0 0 0 STD5.60
2026-03-24 19:33:47 21 18.50 0.105000 41.649648 41.62752893 0 0 0 0 0 0 0 0 STD5.60
2026-03-24 19:28:45 16 18.60 0.080000 41.649648 41.62752893 0 0 0 0 0 0 0 0 STD5.60
2026-03-24 19:23:43 22 18.30 0.110000 41.649648 41.62752893 0 0 0 0 0 0 0 0 STD5.60
2026-03-24 19:18:42 20 17.50 0.100000 41.649648 41.62752893 0 0 0 0 0 0 0 0 STD5.60
2026-03-24 19:13:39 19 17.30 0.095000 41.649648 41.62752893 0 0 0 0 0 0 0 0 STD5.60
2026-03-24 19:08:38 17 16.90 0.085000 41.649648 41.62752893 0 0 0 0 0 0 0 0 STD5.60
2026-03-24 19:03:36 18 16.50 0.090000 41.649648 41.62752893 0 0 0 0 0 0 0 0 STD5.60
2026-03-24 18:58:34 14 16.80 0.070000 41.649648 41.62752893 0 0 0 0 0 0 0 0 STD5.60
2026-03-24 18:53:30 21 18.30 0.105000 41.649648 41.62752893 0 0 0 0 0 0 0 0 STD5.60
2026-03-24 18:48:28 26 18.70 0.130000 41.649648 41.62752893 0 0 0 0 0 0 0 0 STD5.60
2026-03-24 18:43:26 20 17.70 0.100000 41.649648 41.62752893 0 0 0 0 0 0 0 0 STD5.60
2026-03-24 18:38:24 21 17.50 0.105000 41.649648 41.62752893 0 0 0 0 0 0 0 0 STD5.60
2026-03-24 18:33:22 20 16.30 0.100000 41.649648 41.62752893 0 0 0 0 0 0 0 0 STD5.60
2026-03-24 18:28:20 13 18.10 0.065000 41.649648 41.62752893 0 0 0 0 0 0 0 0 STD5.60
2026-03-24 18:23:18 25 19.00 0.125000 41.649648 41.62752893 0 0 0 0 0 0 0 0 STD5.60
2026-03-24 18:18:17 20 17.80 0.100000 41.649648 41.62752893 0 0 0 0 0 0 0 0 STD5.60
2026-03-24 18:13:14 14 19.90 0.070000 41.649648 41.62752893 0 0 0 0 0 0 0 0 STD5.60
2026-03-24 18:08:13 13 20.70 0.065000 41.649648 41.62752893 0 0 0 0 0 0 0 0 STD5.60
2026-03-24 18:03:12 7 19.70 0.035000 41.649648 41.62752893 0 0 0 0 0 0 0 0 STD5.60
2026-03-24 17:58:07 21 18.10 0.105000 41.649648 41.62752893 0 0 0 0 0 0 0 0 STD5.60
2026-03-24 17:53:05 11 18.00 0.055000 41.649648 41.62752893 0 0 0 0 0 0 0 0 STD5.60
2026-03-24 17:48:03 16 20.40 0.080000 41.649648 41.62752893 0 0 0 0 0 0 0 0 STD5.60
2026-03-24 17:43:02 26 20.20 0.130000 41.649648 41.62752893 0 0 0 0 0 0 0 0 STD5.60
2026-03-24 17:37:59 16 17.80 0.080000 41.649648 41.62752893 0 0 0 0 0 0 0 0 STD5.60
2026-03-24 17:32:57 15 16.00 0.075000 41.649648 41.62752893 0 0 0 0 0 0 0 0 STD5.60
2026-03-24 17:27:55 19 18.70 0.095000 41.649648 41.62752893 0 0 0 0 0 0 0 0 STD5.60
2026-03-24 17:22:53 25 20.40 0.125000 41.649648 41.62752893 0 0 0 0 0 0 0 0 STD5.60
2026-03-24 17:17:51 21 16.40 0.105000 41.649648 41.62752893 0 0 0 0 0 0 0 0 STD5.60
2026-03-24 17:12:49 12 16.50 0.060000 41.649648 41.62752893 0 0 0 0 0 0 0 0 STD5.60
2026-03-24 17:07:47 15 18.10 0.075000 41.649648 41.62752893 0 0 0 0 0 0 0 0 STD5.60
2026-03-24 17:02:45 17 19.00 0.085000 41.649648 41.62752893 0 0 0 0 0 0 0 0 STD5.60
2026-03-24 16:57:41 25 17.70 0.125000 41.649648 41.62752893 0 0 0 0 0 0 0 0 STD5.60
2026-03-24 16:52:40 16 17.20 0.080000 41.649648 41.62752893 0 0 0 0 0 0 0 0 STD5.60
2026-03-24 16:47:37 20 19.10 0.100000 41.649648 41.62752893 0 0 0 0 0 0 0 0 STD5.60
2026-03-24 16:42:35 20 18.70 0.100000 41.649648 41.62752893 0 0 0 0 0 0 0 0 STD5.60
2026-03-24 16:37:33 20 18.70 0.100000 41.649648 41.62752893 0 0 0 0 0 0 0 0 STD5.60
2026-03-24 16:32:32 13 17.40 0.065000 41.649648 41.62752893 0 0 0 0 0 0 0 0 STD5.60
2026-03-24 16:27:29 25 16.20 0.125000 41.649648 41.62752893 0 0 0 0 0 0 0 0 STD5.60
2026-03-24 16:22:27 18 16.60 0.090000 41.649648 41.62752893 0 0 0 0 0 0 0 0 STD5.60
2026-03-24 16:17:25 21 18.50 0.105000 41.649648 41.62752893 0 0 0 0 0 0 0 0 STD5.60
2026-03-24 16:12:23 20 19.10 0.100000 41.649648 41.62752893 0 0 0 0 0 0 0 0 STD5.60
2026-03-24 16:07:21 14 17.90 0.070000 41.649648 41.62752893 0 0 0 0 0 0 0 0 STD5.60
2026-03-24 16:02:19 18 18.70 0.090000 41.649648 41.62752893 0 0 0 0 0 0 0 0 STD5.60
2026-03-24 15:57:15 24 19.60 0.120000 41.649648 41.62752893 0 0 0 0 0 0 0 0 STD5.60
2026-03-24 15:52:13 25 19.20 0.125000 41.649648 41.62752893 0 0 0 0 0 0 0 0 STD5.60
2026-03-24 15:47:11 18 18.90 0.090000 41.649648 41.62752893 0 0 0 0 0 0 0 0 STD5.60
2026-03-24 15:42:09 24 18.30 0.120000 41.649648 41.62752893 0 0 0 0 0 0 0 0 STD5.60
2026-03-24 15:37:07 17 15.20 0.085000 41.649648 41.62752893 0 0 0 0 0 0 0 0 STD5.60
2026-03-24 15:32:05 11 15.90 0.055000 41.649648 41.62752893 0 0 0 0 0 0 0 0 STD5.60
2026-03-24 15:27:04 16 18.70 0.080000 41.649648 41.62752893 0 0 0 0 0 0 0 0 STD5.60
2026-03-24 15:22:01 20 19.10 0.100000 41.649648 41.62752893 0 0 0 0 0 0 0 0 STD5.60
2026-03-24 15:16:59 14 19.00 0.070000 41.649648 41.62752893 0 0 0 0 0 0 0 0 STD5.60
2026-03-24 15:11:57 21 16.80 0.105000 41.649648 41.62752893 0 0 0 0 0 0 0 0 STD5.60
Geiger Counter World Map       A real time radiation map.     Copyright 2015 All rights reserved.